Weather History for Scottsbluff, NE

Change the Weather History Date:

Saturday, February 16, 2013

  Actual Average Record
Temperature  
Mean Temperature 38 °F 30 °F  
Max Temperature 56 °F 45 °F 70 °F (2011)
Min Temperature 19 °F 16 °F -14 °F (1993)
Degree Days  
Heating Degree Days 27 35  
Month to date heating degree days 516 575  
Since 1 July heating degree days 4077 4517  
Cooling Degree Days 0 0  
Month to date cooling degree days 0 0  
Year to date cooling degree days 0 0  
Moisture  
Dew Point 18 °F    
Average Humidity 54    
Maximum Humidity 84    
Minimum Humidity 24    
Precipitation  
Precipitation 0.00 in 0.02 in 0.32 in (1939)
Month to date precipitation 0.06 0.30  
Year to date precipitation 0.32 0.71  
Snow  
Snow 0.00 in 0.30 in 4.00 in (1939)
Month to date snowfall 0.6 3.9  
Since 1 July snowfall 18.4 25.3  
Snow Depth 0.00 in    
Sea Level Pressure  
Sea Level Pressure 30.08 in    
Wind  
Wind Speed 11 mph (NW)    
Max Wind Speed 29 mph    
Max Gust Speed 35 mph    
Visibility 10 miles    
Events      
T = Trace of Precipitation, MM = Missing Value Source: NWS Daily Summary

Daily Weather History Graph

Daily Weather History Graph

Search for Another Location

Airport:

Trip Planner

Search our weather history database for the weather conditions in past years. The results will help you decide how hot, cold, wet, or windy it might be!

Date:

Astronomy

Feb. 16, 2013 Rise Set
Actual Time 6:48 AM MST 5:29 PM MST
Civil Twilight 6:19 AM MST 5:57 PM MST
Nautical Twilight 5:47 AM MST 6:30 PM MST
Astronomical Twilight 5:14 AM MST 7:02 PM MST
Moon 9:55 AM MST (2/16) No Moon Set
Length of Visible Light 11h 37m
Length of Day
10h 40m
Waxing Crescent, 40% of the Moon is Illuminated
Feb 16
Waxing Crescent
Feb 17
First Quarter
Feb 25
Full
Mar 4
Last Quarter
Mar 11
New

Hourly Weather History & Observations

Time (MST) Temp. Windchill Dew Point Humidity Pressure Visibility Wind Dir Wind Speed Gust Speed Precip Events Conditions
12:53 AM 21.9 °F 17.2 °F 16.0 °F 78% 30.26 in 10.0 mi NNE 3.5 mph - N/A   Overcast
1:53 AM 21.9 °F 15.7 °F 17.1 °F 82% 30.22 in 10.0 mi WNW 4.6 mph - N/A   Overcast
2:53 AM 25.0 °F 16.3 °F 18.0 °F 75% 30.19 in 10.0 mi WNW 8.1 mph - N/A   Overcast
3:53 AM 30.0 °F 21.1 °F 19.9 °F 66% 30.18 in 10.0 mi WNW 10.4 mph - N/A   Overcast
4:53 AM 33.1 °F 25.5 °F 21.0 °F 61% 30.17 in 10.0 mi NW 9.2 mph - N/A   Overcast
5:53 AM 30.0 °F 21.7 °F 19.0 °F 64% 30.19 in 10.0 mi NW 9.2 mph - N/A   Clear
6:53 AM 26.1 °F 17.6 °F 18.0 °F 71% 30.20 in 10.0 mi NW 8.1 mph - N/A   Clear
7:53 AM 32.0 °F 24.2 °F 19.9 °F 61% 30.18 in 10.0 mi NW 9.2 mph - N/A   Clear
8:53 AM 39.0 °F 29.9 °F 19.9 °F 46% 30.17 in 10.0 mi WNW 17.3 mph - N/A   Clear
9:53 AM 46.0 °F 38.0 °F 19.0 °F 34% 30.15 in 10.0 mi WNW 21.9 mph 31.1 mph N/A   Clear
10:53 AM 50.0 °F - 19.0 °F 29% 30.12 in 10.0 mi WNW 21.9 mph - N/A   Clear
11:53 AM 52.0 °F - 19.0 °F 27% 30.09 in 10.0 mi WNW 19.6 mph 31.1 mph N/A   Clear
12:53 PM 54.0 °F - 19.0 °F 25% 30.06 in 10.0 mi WNW 21.9 mph 33.4 mph N/A   Clear
1:53 PM 55.9 °F - 19.9 °F 25% 30.03 in 10.0 mi WNW 24.2 mph 31.1 mph N/A   Clear
2:53 PM 55.9 °F - 19.9 °F 25% 30.01 in 10.0 mi NW 18.4 mph 31.1 mph N/A   Clear
3:53 PM 54.0 °F - 19.9 °F 26% 29.99 in 10.0 mi NW 17.3 mph 28.8 mph N/A   Clear
4:53 PM 51.1 °F - 18.0 °F 27% 29.99 in 10.0 mi NW 12.7 mph - N/A   Clear
5:53 PM 44.1 °F 41.5 °F 18.0 °F 35% 30.01 in 10.0 mi WNW 4.6 mph - N/A   Clear
6:53 PM 37.0 °F 31.0 °F 18.0 °F 46% 30.04 in 10.0 mi West 8.1 mph - N/A   Clear
7:53 PM 33.8 °F 30.8 °F 17.6 °F 52% 29.96 in 10.0 mi West 3.5 mph - N/A   Clear
8:53 PM 26.1 °F - 14.0 °F 60% 30.01 in 10.0 mi Calm Calm - N/A   Clear
9:53 PM 26.1 °F - 14.0 °F 60% 29.98 in 10.0 mi Calm Calm - N/A   Clear
10:53 PM 24.1 °F - 14.0 °F 65% 29.96 in 10.0 mi Calm Calm - N/A   Clear
11:53 PM 23.0 °F 18.4 °F 14.0 °F 68% 29.93 in 10.0 mi NE 3.5 mph - N/A   Clear